START_TIME,STEP,MOV.,M6,t_acc.,M7,t_acc.,M19,t_acc.,H36,t_acc.
1979-07-12 12:00:27.480 ,0,0,2.,12.0,0.,12.0,0.,12.0,0.,12.0
1979-07-12 12:00:39.480 ,0,0,0.,12.0,0.,12.0,0.,12.0,0.,12.0
1979-07-12 12:00:51.480 ,1,1,1.,12.0,0.,12.0,0.,12.0,0.,12.0
1979-07-12 12:01:03.480 ,1,1,0.,12.0,0.,12.0,0.,12.0,0.,12.0
1979-07-12 12:01:15.480 ,1,0,3.,12.0,0.,12.0,0.,12.0,0.,12.0
1979-07-12 12:01:27.480 ,1,0,1.,12.0,0.,12.0,0.,12.0,1.,12.0
1979-07-12 12:01:39.480 ,2,1,4.,12.0,0.,12.0,0.,12.0,0.,12.0
1979-07-12 12:01:51.480 ,2,1,5.,12.0,0.,12.0,0.,12.0,0.,12.0
1979-07-12 12:02:03.480 ,2,0,1.,12.0,0.,12.0,0.,12.0,1.,12.0
1979-07-12 12:02:15.480 ,2,0,3.,12.0,0.,12.0,0.,12.0,0.,12.0
1979-07-12 12:02:27.480 ,3,1,2.,12.0,0.,12.0,0.,12.0,0.,12.0
1979-07-12 12:02:39.480 ,3,1,1.,12.0,0.,12.0,0.,12.0,0.,12.0
1979-07-12 12:02:51.480 ,3,0,3.,12.0,0.,12.0,0.,12.0,1.,12.0
1979-07-12 12:03:03.480 ,3,0,5.,12.0,0.,12.0,0.,12.0,1.,12.0
1979-07-12 12:03:15.480 ,4,1,4.,12.0,0.,12.0,0.,12.0,1.,12.0
1979-07-12 12:03:27.480 ,4,1,2.,12.0,0.,12.0,0.,12.0,0.,12.0
1979-07-12 12:03:39.480 ,4,0,4.,12.0,0.,12.0,0.,12.0,1.,12.0
1979-07-12 12:03:51.480 ,4,0,2.,12.0,0.,12.0,0.,12.0,0.,12.0
1979-07-12 12:04:03.480 ,5,1,0.,12.0,0.,12.0,0.,12.0,1.,12.0
1979-07-12 12:04:15.480 ,5,1,1.,12.0,0.,12.0,0.,12.0,0.,12.0
1979-07-12 12:04:27.480 ,5,0,5.,12.0,0.,12.0,0.,12.0,1.,12.0
1979-07-12 12:04:39.480 ,5,0,2.,12.0,0.,12.0,0.,12.0,0.,12.0
1979-07-12 12:04:51.480 ,6,1,0.,12.0,0.,12.0,0.,12.0,2.,12.0
1979-07-12 12:05:03.480 ,6,1,0.,12.0,0.,12.0,0.,12.0,1.,12.0
1979-07-12 12:05:15.480 ,6,0,0.,12.0,0.,12.0,0.,12.0,0.,12.0
1979-07-12 12:05:27.480 ,6,0,1.,12.0,0.,12.0,0.,12.0,2.,12.0
1979-07-12 12:05:39.480 ,7,1,1.,12.0,0.,12.0,0.,12.0,0.,12.0
1979-07-12 12:05:51.480 ,7,1,0.,12.0,0.,12.0,0.,12.0,0.,12.0
1979-07-12 12:06:03.480 ,7,0,0.,12.0,0.,12.0,0.,12.0,0.,12.0
1979-07-12 12:06:15.480 ,7,0,0.,12.0,0.,12.0,0.,12.0,0.,12.0
1979-07-12 12:06:27.480 ,7,1,0.,12.0,0.,12.0,0.,12.0,0.,12.0
1979-07-12 12:06:39.480 ,7,1,0.,12.0,0.,12.0,0.,12.0,0.,12.0
1979-07-12 12:06:51.480 ,7,0,0.,12.0,0.,12.0,0.,12.0,0.,12.0
1979-07-12 12:07:03.480 ,7,0,0.,12.0,0.,12.0,0.,12.0,0.,12.0
1979-07-12 12:07:15.480 ,6,1,0.,12.0,0.,12.0,0.,12.0,0.,12.0
1979-07-12 12:07:27.480 ,6,1,1.,12.0,0.,12.0,0.,12.0,0.,12.0
1979-07-12 12:07:39.480 ,6,0,1.,12.0,0.,12.0,0.,12.0,1.,12.0
1979-07-12 12:07:51.480 ,6,0,1.,12.0,0.,12.0,0.,12.0,0.,12.0
1979-07-12 12:08:03.480 ,5,1,0.,12.0,0.,12.0,0.,12.0,0.,12.0
1979-07-12 12:08:15.480 ,5,1,0.,12.0,0.,12.0,0.,12.0,1.,12.0
1979-07-12 12:08:27.480 ,5,0,0.,12.0,0.,12.0,0.,12.0,0.,12.0
1979-07-12 12:08:39.480 ,5,0,1.,12.0,0.,12.0,0.,12.0,1.,12.0
1979-07-12 12:08:51.480 ,4,1,1.,12.0,0.,12.0,0.,12.0,0.,12.0
1979-07-12 12:09:03.480 ,4,1,0.,12.0,0.,12.0,0.,12.0,0.,12.0
1979-07-12 12:09:15.480 ,4,0,2.,12.0,0.,12.0,0.,12.0,0.,12.0
1979-07-12 12:09:27.480 ,4,0,2.,12.0,0.,12.0,0.,12.0,0.,12.0
1979-07-12 12:09:39.480 ,3,1,1.,12.0,0.,12.0,0.,12.0,1.,12.0
1979-07-12 12:09:51.480 ,3,1,2.,12.0,0.,12.0,0.,12.0,0.,12.0
1979-07-12 12:10:03.480 ,3,0,1.,12.0,0.,12.0,0.,12.0,0.,12.0
1979-07-12 12:10:15.480 ,3,0,1.,12.0,0.,12.0,0.,12.0,0.,12.0
1979-07-12 12:10:27.480 ,2,1,1.,12.0,0.,12.0,0.,12.0,1.,12.0
1979-07-12 12:10:39.480 ,2,1,3.,12.0,0.,12.0,0.,12.0,0.,12.0
1979-07-12 12:10:51.480 ,2,0,0.,12.0,0.,12.0,0.,12.0,0.,12.0
1979-07-12 12:11:03.480 ,2,0,1.,12.0,0.,12.0,0.,12.0,0.,12.0
1979-07-12 12:11:15.480 ,1,1,2.,12.0,0.,12.0,0.,12.0,0.,12.0
1979-07-12 12:11:27.480 ,1,1,2.,12.0,0.,12.0,0.,12.0,0.,12.0
1979-07-12 12:11:39.480 ,1,0,1.,12.0,0.,12.0,0.,12.0,1.,12.0
1979-07-12 12:11:51.480 ,1,0,0.,12.0,0.,12.0,0.,12.0,1.,12.0
1979-07-12 12:12:03.480 ,0,1,0.,12.0,0.,12.0,0.,12.0,1.,12.0
1979-07-12 12:12:15.480 ,0,1,0.,12.0,0.,12.0,0.,12.0,0.,12.0
1979-07-12 12:12:27.480 ,0,0,1.,12.0,0.,12.0,0.,12.0,0.,12.0
1979-07-12 12:12:39.480 ,0,0,0.,12.0,0.,12.0,0.,12.0,0.,12.0
1979-07-12 12:12:51.480 ,0,1,0.,12.0,0.,12.0,0.,12.0,1.,12.0
1979-07-12 12:13:03.480 ,0,1,0.,12.0,0.,12.0,0.,12.0,0.,12.0
1979-07-12 12:13:15.480 ,0,0,1.,12.0,0.,12.0,0.,12.0,1.,12.0
1979-07-12 12:13:27.480 ,0,0,0.,12.0,0.,12.0,0.,12.0,0.,12.0
1979-07-12 12:13:39.480 ,1,1,0.,12.0,0.,12.0,0.,12.0,1.,12.0
1979-07-12 12:13:51.480 ,1,1,0.,12.0,0.,12.0,0.,12.0,0.,12.0
1979-07-12 12:14:03.480 ,1,0,0.,12.0,0.,12.0,0.,12.0,0.,12.0
1979-07-12 12:14:15.480 ,1,0,2.,12.0,0.,12.0,0.,12.0,0.,12.0
1979-07-12 12:14:27.480 ,2,1,1.,12.0,0.,12.0,0.,12.0,0.,12.0
1979-07-12 12:14:39.480 ,2,1,0.,12.0,0.,12.0,0.,12.0,0.,12.0
1979-07-12 12:14:51.480 ,2,0,3.,12.0,0.,12.0,0.,12.0,0.,12.0
1979-07-12 12:15:03.480 ,2,0,1.,12.0,0.,12.0,0.,12.0,0.,12.0
1979-07-12 12:15:15.480 ,3,1,0.,12.0,0.,12.0,0.,12.0,0.,12.0
1979-07-12 12:15:27.480 ,3,1,0.,12.0,0.,12.0,0.,12.0,0.,12.0
1979-07-12 12:15:39.480 ,3,0,1.,12.0,0.,12.0,0.,12.0,1.,12.0
1979-07-12 12:15:51.480 ,3,0,0.,12.0,0.,12.0,0.,12.0,0.,12.0
1979-07-12 12:16:03.480 ,4,1,1.,12.0,0.,12.0,0.,12.0,1.,12.0
1979-07-12 12:16:15.480 ,4,1,2.,12.0,0.,12.0,0.,12.0,0.,12.0
1979-07-12 12:16:27.480 ,4,0,0.,12.0,0.,12.0,0.,12.0,1.,12.0
1979-07-12 12:16:39.480 ,4,0,0.,12.0,0.,12.0,0.,12.0,1.,12.0
1979-07-12 12:16:51.480 ,5,1,0.,12.0,0.,12.0,0.,12.0,1.,12.0
1979-07-12 12:17:03.480 ,5,1,1.,12.0,0.,12.0,0.,12.0,0.,12.0
1979-07-12 12:17:15.480 ,5,0,1.,12.0,0.,12.0,0.,12.0,0.,12.0
1979-07-12 12:17:27.480 ,5,0,2.,12.0,0.,12.0,0.,12.0,0.,12.0
1979-07-12 12:17:39.480 ,6,1,2.,12.0,0.,12.0,0.,12.0,0.,12.0
1979-07-12 12:17:51.480 ,6,1,1.,12.0,0.,12.0,0.,12.0,0.,12.0
1979-07-12 12:18:03.480 ,6,0,2.,12.0,0.,12.0,0.,12.0,0.,12.0
1979-07-12 12:18:15.480 ,6,0,2.,12.0,0.,12.0,0.,12.0,0.,12.0
1979-07-12 12:18:27.480 ,7,0,2.,12.0,0.,12.0,0.,12.0,1.,12.0
1979-07-12 12:18:39.480 ,7,0,0.,12.0,0.,12.0,0.,12.0,0.,12.0
1979-07-12 12:18:51.480 ,7,0,0.,12.0,0.,12.0,0.,12.0,0.,12.0
1979-07-12 12:19:03.480 ,7,0,0.,12.0,0.,12.0,0.,12.0,0.,12.0
1979-07-12 12:19:15.480 ,4,1,0.,12.0,0.,12.0,0.,12.0,0.,12.0
1979-07-12 12:19:27.480 ,4,1,0.,12.0,0.,12.0,0.,12.0,0.,12.0
1979-07-12 12:19:39.480 ,0,1,2.,12.0,0.,12.0,0.,12.0,1.,12.0
1979-07-12 12:19:51.480 ,0,1,3.,12.0,0.,12.0,0.,12.0,1.,12.0
1979-07-12 12:20:03.480 ,3,1,2.,12.0,0.,12.0,0.,12.0,1.,12.0
1979-07-12 12:20:15.480 ,3,1,2.,12.0,0.,12.0,0.,12.0,0.,12.0
1979-07-12 12:20:27.480 ,7,1,2.,12.0,0.,12.0,0.,12.0,0.,12.0
1979-07-12 12:20:39.480 ,7,1,0.,12.0,0.,12.0,0.,12.0,1.,12.0
1979-07-12 12:20:51.480 ,4,1,1.,12.0,0.,12.0,0.,12.0,0.,12.0
1979-07-12 12:21:03.480 ,4,1,1.,12.0,0.,12.0,0.,12.0,0.,12.0
1979-07-12 12:21:15.480 ,0,1,1.,12.0,0.,12.0,0.,12.0,1.,12.0
1979-07-12 12:21:27.480 ,0,1,2.,12.0,0.,12.0,0.,12.0,0.,12.0
1979-07-12 12:21:39.480 ,3,1,0.,12.0,0.,12.0,0.,12.0,0.,12.0
1979-07-12 12:21:51.480 ,3,1,0.,12.0,0.,12.0,0.,12.0,0.,12.0
1979-07-12 12:22:03.480 ,7,1,1.,12.0,0.,12.0,0.,12.0,0.,12.0
1979-07-12 12:22:15.480 ,7,1,0.,12.0,0.,12.0,0.,12.0,0.,12.0
1979-07-12 12:22:27.480 ,4,1,1.,12.0,0.,12.0,0.,12.0,0.,12.0
1979-07-12 12:22:39.480 ,4,1,1.,12.0,0.,12.0,0.,12.0,0.,12.0
1979-07-12 12:22:51.480 ,0,1,2.,12.0,0.,12.0,0.,12.0,0.,12.0
1979-07-12 12:23:03.480 ,0,1,1.,12.0,0.,12.0,0.,12.0,1.,12.0
1979-07-12 12:23:15.480 ,3,1,0.,12.0,0.,12.0,0.,12.0,0.,12.0
1979-07-12 12:23:27.480 ,3,1,1.,12.0,0.,12.0,0.,12.0,0.,12.0
1979-07-12 12:23:39.480 ,7,1,1.,12.0,0.,12.0,0.,12.0,1.,12.0
1979-07-12 12:23:51.480 ,7,1,0.,12.0,0.,12.0,0.,12.0,0.,12.0
1979-07-12 12:24:03.480 ,4,1,0.,12.0,0.,12.0,0.,12.0,0.,12.0
1979-07-12 12:24:15.480 ,4,1,2.,12.0,0.,12.0,0.,12.0,0.,12.0
1979-07-12 12:24:27.480 ,0,1,2.,12.0,0.,12.0,0.,12.0,0.,12.0
1979-07-12 12:24:39.480 ,0,1,0.,12.0,0.,12.0,0.,12.0,0.,12.0
1979-07-12 12:24:51.480 ,3,1,0.,12.0,0.,12.0,0.,12.0,0.,12.0
1979-07-12 12:25:03.480 ,3,1,0.,12.0,0.,12.0,0.,12.0,1.,12.0
1979-07-12 12:25:15.480 ,0,0,1.,12.0,0.,12.0,0.,12.0,0.,12.0
1979-07-12 12:25:27.480 ,0,0,,0,,0,,0,,0
1979-07-12 12:25:39.480 ,0,0,1.,12.0,0.,12.0,0.,12.0,0.,12.0
1979-07-12 12:25:51.480 ,0,0,1.,12.0,0.,12.0,0.,12.0,0.,12.0
1979-07-12 12:26:03.480 ,0,1,0.,12.0,0.,12.0,0.,12.0,0.,12.0
1979-07-12 12:26:15.480 ,0,1,1.,12.0,0.,12.0,0.,12.0,0.,12.0
1979-07-12 12:26:27.480 ,3,1,0.,12.0,0.,12.0,0.,12.0,0.,12.0
1979-07-12 12:26:39.480 ,3,1,0.,12.0,0.,12.0,0.,12.0,0.,12.0
1979-07-12 12:26:51.480 ,7,1,1.,12.0,0.,12.0,0.,12.0,0.,12.0
1979-07-12 12:27:03.480 ,7,1,0.,12.0,0.,12.0,0.,12.0,0.,12.0
1979-07-12 12:27:15.480 ,4,1,1.,12.0,0.,12.0,0.,12.0,0.,12.0
1979-07-12 12:27:27.480 ,4,1,0.,12.0,0.,12.0,0.,12.0,0.,12.0
1979-07-12 12:27:39.480 ,0,1,0.,12.0,0.,12.0,0.,12.0,0.,12.0
1979-07-12 12:27:51.480 ,0,1,1.,12.0,0.,12.0,0.,12.0,0.,12.0
1979-07-12 12:28:03.480 ,3,1,0.,12.0,0.,12.0,0.,12.0,0.,12.0
1979-07-12 12:28:15.480 ,3,1,0.,12.0,0.,12.0,0.,12.0,0.,12.0
1979-07-12 12:28:27.480 ,7,1,0.,12.0,0.,12.0,0.,12.0,2.,12.0
1979-07-12 12:28:39.480 ,7,1,0.,12.0,0.,12.0,0.,12.0,0.,12.0
1979-07-12 12:28:51.480 ,4,1,1.,12.0,0.,12.0,0.,12.0,0.,12.0
1979-07-12 12:29:03.480 ,4,1,0.,12.0,0.,12.0,0.,12.0,0.,12.0
1979-07-12 12:29:15.480 ,0,1,0.,12.0,0.,12.0,0.,12.0,0.,12.0
1979-07-12 12:29:27.480 ,0,1,0.,12.0,0.,12.0,0.,12.0,0.,12.0
1979-07-12 12:29:39.480 ,0,0,1.,12.0,0.,12.0,0.,12.0,1.,12.0
1979-07-12 12:29:51.480 ,0,0,1.,12.0,0.,12.0,0.,12.0,0.,12.0
1979-07-12 12:30:03.480 ,0,0,0.,12.0,0.,12.0,0.,12.0,0.,12.0
1979-07-12 12:30:15.480 ,0,0,0.,12.0,0.,12.0,0.,12.0,0.,12.0
1979-07-12 12:30:27.480 ,5,1,0.,12.0,0.,12.0,0.,12.0,0.,12.0
1979-07-12 12:30:39.480 ,5,1,1.,12.0,0.,12.0,0.,12.0,0.,12.0
1979-07-12 12:30:51.480 ,5,0,3.,12.0,0.,12.0,0.,12.0,0.,12.0
1979-07-12 12:31:03.480 ,5,0,0.,12.0,0.,12.0,0.,12.0,0.,12.0
1979-07-12 12:31:15.480 ,4,1,1.,12.0,0.,12.0,0.,12.0,0.,12.0
1979-07-12 12:31:27.480 ,4,1,0.,12.0,0.,12.0,0.,12.0,0.,12.0
1979-07-12 12:31:39.480 ,4,0,0.,12.0,0.,12.0,0.,12.0,2.,12.0
1979-07-12 12:31:51.480 ,4,0,0.,12.0,0.,12.0,0.,12.0,2.,12.0
1979-07-12 12:32:03.480 ,3,1,2.,12.0,0.,12.0,0.,12.0,0.,12.0
1979-07-12 12:32:15.480 ,3,1,1.,12.0,0.,12.0,0.,12.0,0.,12.0
1979-07-12 12:32:27.480 ,3,0,0.,12.0,0.,12.0,0.,12.0,0.,12.0
1979-07-12 12:32:39.480 ,3,0,1.,12.0,0.,12.0,0.,12.0,0.,12.0
1979-07-12 12:32:51.480 ,2,1,0.,12.0,0.,12.0,0.,12.0,2.,12.0
1979-07-12 12:33:03.480 ,2,1,1.,12.0,0.,12.0,0.,12.0,0.,12.0
1979-07-12 12:33:15.480 ,2,0,0.,12.0,0.,12.0,0.,12.0,1.,12.0
1979-07-12 12:33:27.480 ,2,0,0.,12.0,0.,12.0,0.,12.0,1.,12.0
1979-07-12 12:33:39.480 ,1,1,1.,12.0,0.,12.0,0.,12.0,0.,12.0
1979-07-12 12:33:51.480 ,1,1,1.,12.0,0.,12.0,0.,12.0,2.,12.0
1979-07-12 12:34:03.480 ,1,0,1.,12.0,0.,12.0,0.,12.0,0.,12.0
1979-07-12 12:34:15.480 ,1,0,1.,12.0,0.,12.0,0.,12.0,0.,12.0
1979-07-12 12:34:27.480 ,0,1,0.,12.0,0.,12.0,0.,12.0,0.,12.0
1979-07-12 12:34:39.480 ,0,1,0.,12.0,0.,12.0,0.,12.0,1.,12.0
1979-07-12 12:34:51.480 ,0,0,0.,12.0,0.,12.0,0.,12.0,0.,12.0
1979-07-12 12:35:03.480 ,0,0,0.,12.0,0.,12.0,0.,12.0,0.,12.0
1979-07-12 12:35:15.480 ,0,1,0.,12.0,0.,12.0,0.,12.0,0.,12.0
1979-07-12 12:35:27.480 ,0,1,0.,12.0,1.,12.0,0.,12.0,0.,12.0
1979-07-12 12:35:39.480 ,0,0,0.,12.0,0.,12.0,0.,12.0,0.,12.0
1979-07-12 12:35:51.480 ,0,0,0.,12.0,0.,12.0,0.,12.0,0.,12.0
1979-07-12 12:36:03.480 ,1,1,0.,12.0,0.,12.0,0.,12.0,0.,12.0
1979-07-12 12:36:15.480 ,1,1,2.,12.0,0.,12.0,0.,12.0,0.,12.0
1979-07-12 12:36:27.480 ,1,0,1.,12.0,0.,12.0,0.,12.0,0.,12.0
1979-07-12 12:36:39.480 ,1,0,0.,12.0,0.,12.0,0.,12.0,2.,12.0
1979-07-12 12:36:51.480 ,2,1,0.,12.0,0.,12.0,0.,12.0,0.,12.0
1979-07-12 12:37:03.480 ,2,1,1.,12.0,0.,12.0,0.,12.0,0.,12.0
1979-07-12 12:37:15.480 ,0,0,2.,12.0,0.,12.0,0.,12.0,0.,12.0
1979-07-12 12:37:27.480 ,0,0,1.,12.0,0.,12.0,0.,12.0,0.,12.0
1979-07-12 12:37:39.480 ,3,1,0.,12.0,0.,12.0,0.,12.0,1.,12.0
1979-07-12 12:37:51.480 ,3,1,1.,12.0,0.,12.0,0.,12.0,0.,12.0
1979-07-12 12:38:03.480 ,3,0,0.,12.0,0.,12.0,0.,12.0,1.,12.0
1979-07-12 12:38:15.480 ,3,0,2.,12.0,0.,12.0,0.,12.0,0.,12.0
1979-07-12 12:38:27.480 ,4,1,1.,12.0,0.,12.0,0.,12.0,1.,12.0
1979-07-12 12:38:39.480 ,4,1,1.,12.0,0.,12.0,0.,12.0,1.,12.0
1979-07-12 12:38:51.480 ,4,0,1.,12.0,0.,12.0,0.,12.0,0.,12.0
1979-07-12 12:39:03.480 ,4,0,1.,12.0,0.,12.0,0.,12.0,1.,12.0
1979-07-12 12:39:15.480 ,5,1,0.,12.0,0.,12.0,0.,12.0,2.,12.0
1979-07-12 12:39:27.480 ,5,1,0.,12.0,0.,12.0,0.,12.0,1.,12.0
1979-07-12 12:39:39.480 ,5,0,0.,12.0,0.,12.0,0.,12.0,0.,12.0
1979-07-12 12:39:51.480 ,5,0,1.,12.0,0.,12.0,0.,12.0,0.,12.0
1979-07-12 12:40:03.480 ,6,1,0.,12.0,0.,12.0,0.,12.0,1.,12.0
1979-07-12 12:40:15.480 ,6,1,1.,12.0,0.,12.0,0.,12.0,1.,12.0
1979-07-12 12:40:27.480 ,6,0,1.,12.0,0.,12.0,0.,12.0,0.,12.0
1979-07-12 12:40:39.480 ,6,0,0.,12.0,0.,12.0,0.,12.0,1.,12.0
1979-07-12 12:40:51.480 ,7,1,0.,12.0,0.,12.0,0.,12.0,1.,12.0
1979-07-12 12:41:03.480 ,7,1,0.,12.0,0.,12.0,0.,12.0,0.,12.0
1979-07-12 12:41:15.480 ,7,0,0.,12.0,0.,12.0,0.,12.0,0.,12.0
1979-07-12 12:41:27.480 ,7,0,0.,12.0,0.,12.0,0.,12.0,0.,12.0
1979-07-12 12:41:39.480 ,7,1,0.,12.0,0.,12.0,0.,12.0,0.,12.0
1979-07-12 12:41:51.480 ,7,1,0.,12.0,0.,12.0,0.,12.0,0.,12.0
1979-07-12 12:42:03.480 ,7,0,0.,12.0,0.,12.0,0.,12.0,0.,12.0
1979-07-12 12:42:15.480 ,7,0,0.,12.0,0.,12.0,0.,12.0,0.,12.0
1979-07-12 12:42:27.480 ,6,1,0.,12.0,0.,12.0,0.,12.0,0.,12.0
1979-07-12 12:42:39.480 ,6,1,0.,12.0,0.,12.0,0.,12.0,2.,12.0
1979-07-12 12:42:51.480 ,6,0,1.,12.0,0.,12.0,0.,12.0,0.,12.0
1979-07-12 12:43:03.480 ,6,0,0.,12.0,0.,12.0,0.,12.0,0.,12.0
1979-07-12 12:43:15.480 ,5,1,1.,12.0,0.,12.0,0.,12.0,0.,12.0
1979-07-12 12:43:27.480 ,5,1,0.,12.0,0.,12.0,0.,12.0,3.,12.0
1979-07-12 12:43:39.480 ,5,0,1.,12.0,0.,12.0,0.,12.0,1.,12.0
1979-07-12 12:43:51.480 ,5,0,0.,12.0,0.,12.0,0.,12.0,2.,12.0
1979-07-12 12:44:03.480 ,4,1,0.,12.0,0.,12.0,0.,12.0,0.,12.0
1979-07-12 12:44:15.480 ,4,1,2.,12.0,0.,12.0,0.,12.0,2.,12.0
1979-07-12 12:44:27.480 ,4,0,2.,12.0,0.,12.0,0.,12.0,0.,12.0
1979-07-12 12:44:39.480 ,4,0,1.,12.0,0.,12.0,0.,12.0,2.,12.0
1979-07-12 12:44:51.480 ,3,1,1.,12.0,0.,12.0,0.,12.0,1.,12.0
1979-07-12 12:45:03.480 ,3,1,0.,12.0,0.,12.0,0.,12.0,0.,12.0
1979-07-12 12:45:15.480 ,3,0,2.,12.0,0.,12.0,0.,12.0,0.,12.0
1979-07-12 12:45:27.480 ,3,0,0.,12.0,0.,12.0,0.,12.0,0.,12.0
1979-07-12 12:45:39.480 ,2,1,0.,12.0,0.,12.0,0.,12.0,1.,12.0
1979-07-12 12:45:51.480 ,2,1,0.,12.0,0.,12.0,0.,12.0,1.,12.0
1979-07-12 12:46:03.480 ,2,0,0.,12.0,0.,12.0,0.,12.0,0.,12.0
1979-07-12 12:46:15.480 ,2,0,1.,12.0,0.,12.0,0.,12.0,0.,12.0
1979-07-12 12:46:27.480 ,1,1,0.,12.0,0.,12.0,0.,12.0,0.,12.0
1979-07-12 12:46:39.480 ,1,1,0.,12.0,0.,12.0,0.,12.0,0.,12.0
1979-07-12 12:46:51.480 ,1,0,0.,12.0,0.,12.0,0.,12.0,0.,12.0
1979-07-12 12:47:03.480 ,1,0,1.,12.0,0.,12.0,0.,12.0,0.,12.0
1979-07-12 12:47:15.480 ,0,1,1.,12.0,0.,12.0,0.,12.0,0.,12.0
1979-07-12 12:47:27.480 ,0,1,1.,12.0,0.,12.0,0.,12.0,0.,12.0
1979-07-12 12:47:39.480 ,0,0,2.,12.0,0.,12.0,0.,12.0,0.,12.0
1979-07-12 12:47:51.480 ,0,0,0.,12.0,0.,12.0,0.,12.0,0.,12.0
1979-07-12 12:48:03.480 ,0,1,0.,12.0,0.,12.0,0.,12.0,0.,12.0
1979-07-12 12:48:15.480 ,0,1,0.,12.0,0.,12.0,0.,12.0,1.,12.0
1979-07-12 12:48:27.480 ,0,0,0.,12.0,0.,12.0,0.,12.0,0.,12.0
1979-07-12 12:48:39.480 ,0,0,0.,12.0,0.,12.0,0.,12.0,0.,12.0
1979-07-12 12:48:51.480 ,1,1,1.,12.0,0.,12.0,0.,12.0,0.,12.0
1979-07-12 12:49:03.480 ,1,1,0.,12.0,0.,12.0,0.,12.0,1.,12.0
1979-07-12 12:49:15.480 ,1,0,1.,12.0,0.,12.0,0.,12.0,0.,12.0
1979-07-12 12:49:27.480 ,1,0,0.,12.0,0.,12.0,0.,12.0,1.,12.0
1979-07-12 12:49:39.480 ,2,1,0.,12.0,0.,12.0,0.,12.0,0.,12.0
1979-07-12 12:49:51.480 ,2,1,0.,12.0,0.,12.0,0.,12.0,0.,12.0
1979-07-12 12:50:03.480 ,2,0,2.,12.0,0.,12.0,0.,12.0,0.,12.0
1979-07-12 12:50:15.480 ,2,0,1.,12.0,0.,12.0,0.,12.0,1.,12.0
1979-07-12 12:50:27.480 ,3,1,0.,12.0,0.,12.0,0.,12.0,0.,12.0
1979-07-12 12:50:39.480 ,3,1,0.,12.0,0.,12.0,0.,12.0,0.,12.0
1979-07-12 12:50:51.480 ,3,0,0.,12.0,0.,12.0,0.,12.0,0.,12.0
1979-07-12 12:51:03.480 ,3,0,0.,12.0,0.,12.0,0.,12.0,0.,12.0
1979-07-12 12:51:15.480 ,4,1,0.,12.0,0.,12.0,0.,12.0,0.,12.0
1979-07-12 12:51:27.480 ,4,1,0.,12.0,0.,12.0,0.,12.0,0.,12.0
1979-07-12 12:51:39.480 ,4,0,0.,12.0,0.,12.0,0.,12.0,0.,12.0
1979-07-12 12:51:51.480 ,4,0,0.,12.0,0.,12.0,0.,12.0,0.,12.0
1979-07-12 12:52:03.480 ,5,1,0.,12.0,0.,12.0,0.,12.0,0.,12.0
1979-07-12 12:52:15.480 ,5,1,1.,12.0,0.,12.0,0.,12.0,0.,12.0
1979-07-12 12:52:27.480 ,5,0,1.,12.0,0.,12.0,0.,12.0,0.,12.0
1979-07-12 12:52:39.480 ,5,0,1.,12.0,0.,12.0,0.,12.0,0.,12.0
1979-07-12 12:52:51.480 ,6,1,1.,12.0,0.,12.0,0.,12.0,0.,12.0
1979-07-12 12:53:03.480 ,6,1,0.,12.0,0.,12.0,0.,12.0,2.,12.0
1979-07-12 12:53:15.480 ,6,0,1.,12.0,0.,12.0,0.,12.0,0.,12.0
1979-07-12 12:53:27.480 ,6,0,0.,12.0,0.,12.0,0.,12.0,0.,12.0
1979-07-12 12:53:39.480 ,7,1,0.,12.0,0.,12.0,0.,12.0,0.,12.0
1979-07-12 12:53:51.480 ,7,1,0.,12.0,0.,12.0,0.,12.0,0.,12.0
1979-07-12 12:54:03.480 ,7,0,0.,12.0,0.,12.0,0.,12.0,0.,12.0
1979-07-12 12:54:15.480 ,7,0,0.,12.0,0.,12.0,0.,12.0,0.,12.0
1979-07-12 12:54:27.480 ,7,1,0.,12.0,0.,12.0,0.,12.0,0.,12.0
1979-07-12 12:54:39.480 ,7,1,0.,12.0,0.,12.0,0.,12.0,0.,12.0
1979-07-12 12:54:51.480 ,7,0,0.,12.0,0.,12.0,0.,12.0,0.,12.0
1979-07-12 12:55:03.480 ,7,0,0.,12.0,0.,12.0,0.,12.0,0.,12.0
1979-07-12 12:55:15.480 ,6,1,0.,12.0,0.,12.0,0.,12.0,0.,12.0
1979-07-12 12:55:27.480 ,6,1,0.,12.0,0.,12.0,0.,12.0,0.,12.0
1979-07-12 12:55:39.480 ,6,0,0.,12.0,0.,12.0,0.,12.0,0.,12.0
1979-07-12 12:55:51.480 ,6,0,0.,12.0,0.,12.0,0.,12.0,1.,12.0
1979-07-12 12:56:03.480 ,5,1,0.,12.0,0.,12.0,0.,12.0,0.,12.0
1979-07-12 12:56:15.480 ,5,1,1.,12.0,0.,12.0,0.,12.0,0.,12.0
1979-07-12 12:56:27.480 ,5,0,0.,12.0,0.,12.0,0.,12.0,1.,12.0
1979-07-12 12:56:39.480 ,5,0,1.,12.0,0.,12.0,0.,12.0,0.,12.0
1979-07-12 12:56:51.480 ,4,1,1.,12.0,0.,12.0,0.,12.0,2.,12.0
1979-07-12 12:57:03.480 ,4,1,1.,12.0,0.,12.0,0.,12.0,0.,12.0
1979-07-12 12:57:15.480 ,4,0,0.,12.0,0.,12.0,0.,12.0,0.,12.0
1979-07-12 12:57:27.480 ,4,0,0.,12.0,0.,12.0,0.,12.0,0.,12.0
1979-07-12 12:57:39.480 ,3,1,0.,12.0,0.,12.0,0.,12.0,0.,12.0
1979-07-12 12:57:51.480 ,3,1,0.,12.0,0.,12.0,0.,12.0,1.,12.0
1979-07-12 12:58:03.480 ,3,0,1.,12.0,0.,12.0,0.,12.0,0.,12.0
1979-07-12 12:58:15.480 ,3,0,1.,12.0,0.,12.0,0.,12.0,0.,12.0
1979-07-12 12:58:27.480 ,2,1,1.,12.0,0.,12.0,0.,12.0,0.,12.0
1979-07-12 12:58:39.480 ,2,1,0.,12.0,0.,12.0,0.,12.0,0.,12.0
1979-07-12 12:58:51.480 ,2,0,1.,12.0,0.,12.0,0.,12.0,1.,12.0
1979-07-12 12:59:03.480 ,2,0,0.,12.0,0.,12.0,0.,12.0,0.,12.0
1979-07-12 12:59:15.480 ,1,1,0.,12.0,0.,12.0,0.,12.0,0.,12.0
1979-07-12 12:59:27.480 ,1,1,0.,12.0,0.,12.0,0.,12.0,0.,12.0
1979-07-12 12:59:39.480 ,1,0,0.,12.0,0.,12.0,0.,12.0,0.,12.0
1979-07-12 12:59:51.480 ,1,0,0.,12.0,0.,12.0,0.,12.0,0.,12.0
1979-07-12 13:00:03.480 ,0,1,0.,12.0,0.,12.0,0.,12.0,0.,12.0
1979-07-12 13:00:15.480 ,0,1,0.,12.0,0.,12.0,0.,12.0,0.,12.0
1979-07-12 13:00:27.480 ,0,0,0.,12.0,0.,12.0,0.,12.0,0.,12.0
1979-07-12 13:00:39.480 ,0,0,0.,12.0,0.,12.0,0.,12.0,0.,12.0
1979-07-12 13:00:51.480 ,0,1,0.,12.0,0.,12.0,0.,12.0,0.,12.0
1979-07-12 13:01:03.480 ,0,1,0.,12.0,0.,12.0,0.,12.0,0.,12.0
1979-07-12 13:01:15.480 ,0,0,0.,12.0,0.,12.0,0.,12.0,0.,12.0
1979-07-12 13:01:27.480 ,0,0,0.,12.0,0.,12.0,0.,12.0,1.,12.0
1979-07-12 13:01:39.480 ,1,1,0.,12.0,0.,12.0,0.,12.0,0.,12.0
1979-07-12 13:01:51.480 ,1,1,2.,12.0,0.,12.0,0.,12.0,0.,12.0
1979-07-12 13:02:03.480 ,1,0,1.,12.0,0.,12.0,0.,12.0,0.,12.0
1979-07-12 13:02:15.480 ,1,0,0.,12.0,0.,12.0,0.,12.0,0.,12.0
1979-07-12 13:02:27.480 ,2,1,0.,12.0,0.,12.0,0.,12.0,0.,12.0
1979-07-12 13:02:39.480 ,2,1,2.,12.0,0.,12.0,0.,12.0,1.,12.0
1979-07-12 13:02:51.480 ,2,0,1.,12.0,0.,12.0,0.,12.0,0.,12.0
1979-07-12 13:03:03.480 ,2,0,1.,12.0,0.,12.0,0.,12.0,1.,12.0
1979-07-12 13:03:15.480 ,3,1,0.,12.0,0.,12.0,0.,12.0,0.,12.0
1979-07-12 13:03:27.480 ,3,1,0.,12.0,0.,12.0,0.,12.0,0.,12.0
1979-07-12 13:03:39.480 ,3,0,0.,12.0,0.,12.0,0.,12.0,0.,12.0
1979-07-12 13:03:51.480 ,3,0,0.,12.0,0.,12.0,0.,12.0,0.,12.0
1979-07-12 13:04:03.480 ,4,1,0.,12.0,0.,12.0,0.,12.0,0.,12.0
1979-07-12 13:04:15.480 ,4,1,1.,12.0,0.,12.0,0.,12.0,0.,12.0
1979-07-12 13:04:27.480 ,4,0,0.,12.0,0.,12.0,0.,12.0,0.,12.0
1979-07-12 13:04:39.480 ,4,0,0.,12.0,0.,12.0,0.,12.0,0.,12.0
1979-07-12 13:04:51.480 ,5,1,1.,12.0,0.,12.0,0.,12.0,1.,12.0
1979-07-12 13:05:03.480 ,5,1,1.,12.0,0.,12.0,0.,12.0,0.,12.0
1979-07-12 13:05:15.480 ,5,0,0.,12.0,0.,12.0,0.,12.0,0.,12.0
1979-07-12 13:05:27.480 ,5,0,0.,12.0,0.,12.0,0.,12.0,0.,12.0
1979-07-12 13:05:39.480 ,6,1,0.,12.0,0.,12.0,0.,12.0,1.,12.0
1979-07-12 13:05:51.480 ,6,1,0.,12.0,0.,12.0,0.,12.0,1.,12.0
1979-07-12 13:06:03.480 ,6,0,0.,12.0,0.,12.0,0.,12.0,0.,12.0
1979-07-12 13:06:15.480 ,6,0,0.,12.0,0.,12.0,0.,12.0,0.,12.0
1979-07-12 13:06:27.480 ,7,0,0.,12.0,0.,12.0,0.,12.0,1.,12.0
1979-07-12 13:06:39.480 ,7,0,0.,12.0,0.,12.0,0.,12.0,1.,12.0
1979-07-12 13:06:51.480 ,7,0,0.,12.0,0.,12.0,0.,12.0,0.,12.0
1979-07-12 13:07:03.480 ,7,0,0.,12.0,0.,12.0,0.,12.0,0.,12.0
1979-07-12 13:07:15.480 ,4,1,0.,12.0,0.,12.0,0.,12.0,0.,12.0
1979-07-12 13:07:27.480 ,4,1,1.,12.0,0.,12.0,0.,12.0,0.,12.0
1979-07-12 13:07:39.480 ,0,1,0.,12.0,0.,12.0,0.,12.0,0.,12.0
1979-07-12 13:07:51.480 ,0,1,0.,12.0,0.,12.0,0.,12.0,0.,12.0
1979-07-12 13:08:03.480 ,3,1,0.,12.0,0.,12.0,0.,12.0,0.,12.0
1979-07-12 13:08:15.480 ,3,1,1.,12.0,0.,12.0,0.,12.0,1.,12.0
1979-07-12 13:08:27.480 ,7,1,1.,12.0,0.,12.0,0.,12.0,0.,12.0
1979-07-12 13:08:39.480 ,7,1,0.,12.0,0.,12.0,0.,12.0,0.,12.0
1979-07-12 13:08:51.480 ,4,1,0.,12.0,0.,12.0,0.,12.0,0.,12.0
1979-07-12 13:09:03.480 ,4,1,1.,12.0,0.,12.0,0.,12.0,0.,12.0
1979-07-12 13:09:15.480 ,0,1,0.,12.0,0.,12.0,0.,12.0,0.,12.0
1979-07-12 13:09:27.480 ,0,1,2.,12.0,0.,12.0,0.,12.0,0.,12.0
1979-07-12 13:09:39.480 ,3,1,0.,12.0,0.,12.0,0.,12.0,0.,12.0
1979-07-12 13:09:51.480 ,3,1,0.,12.0,0.,12.0,0.,12.0,0.,12.0
1979-07-12 13:10:03.480 ,0,0,0.,12.0,0.,12.0,0.,12.0,0.,12.0
1979-07-12 13:10:15.480 ,0,0,2.,12.0,0.,12.0,0.,12.0,0.,12.0
1979-07-12 13:10:27.480 ,4,1,0.,12.0,0.,12.0,0.,12.0,0.,12.0
1979-07-12 13:10:39.480 ,4,1,0.,12.0,0.,12.0,0.,12.0,0.,12.0
1979-07-12 13:10:51.480 ,0,1,0.,12.0,0.,12.0,0.,12.0,1.,12.0
1979-07-12 13:11:03.480 ,0,1,0.,12.0,0.,12.0,0.,12.0,0.,12.0
1979-07-12 13:11:15.480 ,3,1,0.,12.0,0.,12.0,0.,12.0,0.,12.0
1979-07-12 13:11:27.480 ,3,1,0.,12.0,0.,12.0,0.,12.0,0.,12.0
1979-07-12 13:11:39.480 ,7,1,0.,12.0,0.,12.0,0.,12.0,0.,12.0
1979-07-12 13:11:51.480 ,7,1,0.,12.0,0.,12.0,0.,12.0,0.,12.0
1979-07-12 13:12:03.480 ,4,1,0.,12.0,0.,12.0,0.,12.0,0.,12.0
1979-07-12 13:12:15.480 ,4,1,0.,12.0,0.,12.0,0.,12.0,0.,12.0
1979-07-12 13:12:27.480 ,0,1,0.,12.0,0.,12.0,0.,12.0,0.,12.0
1979-07-12 13:12:39.480 ,0,1,0.,12.0,0.,12.0,0.,12.0,0.,12.0
1979-07-12 13:12:51.480 ,3,1,0.,12.0,0.,12.0,0.,12.0,0.,12.0
1979-07-12 13:13:03.480 ,3,1,1.,12.0,0.,12.0,0.,12.0,1.,12.0
1979-07-12 13:13:15.480 ,7,1,0.,12.0,0.,12.0,0.,12.0,0.,12.0
1979-07-12 13:13:27.480 ,7,1,1.,12.0,0.,12.0,0.,12.0,0.,12.0
1979-07-12 13:13:39.480 ,4,1,0.,12.0,0.,12.0,0.,12.0,0.,12.0
1979-07-12 13:13:51.480 ,4,1,0.,12.0,0.,12.0,0.,12.0,0.,12.0
1979-07-12 13:14:03.480 ,0,0,0.,12.0,0.,12.0,0.,12.0,0.,12.0
1979-07-12 13:14:15.480 ,0,0,,0,,0,,0,,0
1979-07-12 13:14:27.480 ,0,0,0.,12.0,0.,12.0,0.,12.0,0.,12.0
1979-07-12 13:14:39.480 ,0,0,1.,12.0,0.,12.0,0.,12.0,0.,12.0
1979-07-12 13:14:51.480 ,7,1,2.,12.0,0.,12.0,0.,12.0,0.,12.0
1979-07-12 13:15:03.480 ,7,1,0.,12.0,0.,12.0,0.,12.0,0.,12.0
1979-07-12 13:15:15.480 ,4,1,0.,12.0,0.,12.0,0.,12.0,0.,12.0
1979-07-12 13:15:27.480 ,4,1,0.,12.0,0.,12.0,0.,12.0,1.,12.0
1979-07-12 13:15:39.480 ,0,1,0.,12.0,0.,12.0,0.,12.0,0.,12.0
1979-07-12 13:15:51.480 ,0,1,0.,12.0,0.,12.0,0.,12.0,1.,12.0
1979-07-12 13:16:03.480 ,3,1,0.,12.0,0.,12.0,0.,12.0,0.,12.0
1979-07-12 13:16:15.480 ,3,1,0.,12.0,0.,12.0,0.,12.0,1.,12.0
1979-07-12 13:16:27.480 ,7,1,3.,12.0,0.,12.0,0.,12.0,0.,12.0
1979-07-12 13:16:39.480 ,7,1,0.,12.0,0.,12.0,0.,12.0,1.,12.0
1979-07-12 13:16:51.480 ,4,1,0.,12.0,0.,12.0,0.,12.0,0.,12.0
1979-07-12 13:17:03.480 ,4,1,0.,12.0,0.,12.0,0.,12.0,0.,12.0
1979-07-12 13:17:15.480 ,0,1,0.,12.0,0.,12.0,0.,12.0,0.,12.0
1979-07-12 13:17:27.480 ,0,1,0.,12.0,0.,12.0,0.,12.0,0.,12.0